| time (UTC) | temp F | wind direction | speed MPH | gust MPH | rain 1hr in | rain 24hr in | rain mn in | humidity % | barometer mb |
| 20260508113231 | 37 | 4 | 0.0 | 0.0 | 0.00 | 0.00 | 0.00 | 85 | 1036.0 |
| 20260508112727 | 36 | 1 | 0.0 | 0.0 | 0.00 | 0.00 | 0.00 | 86 | 1036.0 |
| 20260508112224 | 36 | 1 | 0.0 | 1.0 | 0.00 | 0.00 | 0.00 | 88 | 1036.0 |
| 20260508111720 | 36 | 1 | 0.0 | 0.0 | 0.00 | 0.00 | 0.00 | 89 | 1036.1 |
| 20260508111219 | 35 | 1 | 0.0 | 0.0 | 0.00 | 0.00 | 0.00 | 89 | 1036.0 |
| 20260508110715 | 34 | 1 | 0.0 | 0.0 | 0.00 | 0.00 | 0.00 | 91 | 1036.2 |
| 20260508110212 | 34 | 1 | 0.0 | 0.0 | 0.00 | 0.00 | 0.00 | 92 | 1035.8 |
| 20260508105712 | 34 | 1 | 0.0 | 0.0 | 0.00 | 0.00 | 0.00 | 93 | 1035.7 |
| 20260508105209 | 33 | 1 | 0.0 | 0.0 | 0.00 | 0.00 | 0.00 | 94 | 1035.8 |
| 20260508104707 | 33 | 1 | 0.0 | 0.0 | 0.00 | 0.00 | 0.00 | 94 | 1035.7 |
| 20260508104203 | 32 | 1 | 0.0 | 0.0 | 0.00 | 0.00 | 0.00 | 94 | 1035.8 |
| 20260508103701 | 32 | 1 | 0.0 | 0.0 | 0.00 | 0.00 | 0.00 | 94 | 1035.8 |
| 20260508103158 | 32 | 1 | 0.0 | 0.0 | 0.00 | 0.00 | 0.00 | 94 | 1035.7 |
| 20260508102655 | 32 | 1 | 0.0 | 0.0 | 0.00 | 0.00 | 0.00 | 94 | 1035.5 |
| 20260508102153 | 32 | 1 | 0.0 | 0.0 | 0.00 | 0.00 | 0.00 | 94 | 1035.7 |
| 20260508101649 | 32 | 2 | 0.0 | 0.0 | 0.00 | 0.00 | 0.00 | 94 | 1035.5 |
| 20260508101148 | 32 | 0 | 0.0 | 0.0 | 0.00 | 0.00 | 0.00 | 94 | 1035.5 |
| 20260508100644 | 31 | 0 | 0.0 | 0.0 | 0.00 | 0.00 | 0.00 | 94 | 1035.4 |
| 20260508100143 | 32 | 0 | 0.0 | 0.0 | 0.00 | 0.00 | 0.00 | 94 | 1035.3 |
| 20260508095639 | 31 | 0 | 0.0 | 0.0 | 0.00 | 0.00 | 0.00 | 94 | 1035.3 |
| 20260508095136 | 31 | 0 | 0.0 | 0.0 | 0.00 | 0.00 | 0.00 | 94 | 1035.4 |
| 20260508094633 | 31 | 0 | 0.0 | 0.0 | 0.00 | 0.00 | 0.00 | 94 | 1035.3 |
| 20260508094129 | 31 | 0 | 0.0 | 0.0 | 0.00 | 0.00 | 0.00 | 94 | 1035.2 |
| 20260508093627 | 31 | 0 | 0.0 | 0.0 | 0.00 | 0.00 | 0.00 | 93 | 1035.1 |
| 20260508093124 | 31 | 0 | 0.0 | 0.0 | 0.00 | 0.00 | 0.00 | 93 | 1035.1 |
| 20260508092621 | 32 | 0 | 0.0 | 0.0 | 0.00 | 0.00 | 0.00 | 93 | 1035.0 |
| 20260508092120 | 32 | 0 | 0.0 | 0.0 | 0.00 | 0.00 | 0.00 | 93 | 1035.0 |
| 20260508091617 | 31 | 0 | 0.0 | 0.0 | 0.00 | 0.00 | 0.00 | 93 | 1035.1 |
| 20260508091114 | 31 | 0 | 0.0 | 0.0 | 0.00 | 0.00 | 0.00 | 93 | 1035.1 |
| 20260508090612 | 31 | 0 | 0.0 | 0.0 | 0.00 | 0.00 | 0.00 | 93 | 1035.1 |
| 20260508090109 | 32 | 0 | 0.0 | 0.0 | 0.00 | 0.00 | 0.00 | 93 | 1035.2 |
| 20260508085605 | 31 | 0 | 0.0 | 0.0 | 0.00 | 0.00 | 0.00 | 92 | 1035.0 |
| 20260508085102 | 32 | 0 | 0.0 | 0.0 | 0.00 | 0.00 | 0.00 | 92 | 1035.0 |
| 20260508084558 | 32 | 0 | 0.0 | 0.0 | 0.00 | 0.00 | 0.00 | 92 | 1035.0 |
| 20260508084056 | 32 | 0 | 0.0 | 0.0 | 0.00 | 0.00 | 0.00 | 92 | 1035.0 |
| 20260508083553 | 32 | 0 | 0.0 | 0.0 | 0.00 | 0.00 | 0.00 | 92 | 1034.8 |
| 20260508083050 | 32 | 0 | 0.0 | 0.0 | 0.00 | 0.00 | 0.00 | 92 | 1035.0 |
| 20260508082546 | 32 | 359 | 0.0 | 0.0 | 0.00 | 0.00 | 0.00 | 92 | 1034.8 |
| 20260508082043 | 32 | 359 | 0.0 | 0.0 | 0.00 | 0.00 | 0.00 | 92 | 1034.7 |
| 20260508081541 | 32 | 359 | 0.0 | 0.0 | 0.00 | 0.00 | 0.00 | 92 | 1034.7 |
| 20260508081036 | 32 | 359 | 0.0 | 0.0 | 0.00 | 0.00 | 0.00 | 92 | 1034.6 |
| 20260508080535 | 32 | 359 | 0.0 | 0.0 | 0.00 | 0.00 | 0.00 | 92 | 1034.7 |
| 20260508080032 | 32 | 359 | 0.0 | 0.0 | 0.00 | 0.00 | 0.00 | 92 | 1034.7 |
| 20260508075528 | 32 | 359 | 0.0 | 0.0 | 0.00 | 0.00 | 0.00 | 91 | 1034.6 |
| 20260508075026 | 33 | 359 | 0.0 | 0.0 | 0.00 | 0.00 | 0.00 | 91 | 1034.3 |
| 20260508074523 | 33 | 359 | 0.0 | 0.0 | 0.00 | 0.00 | 0.00 | 91 | 1034.3 |
| 20260508074020 | 33 | 359 | 0.0 | 0.0 | 0.00 | 0.00 | 0.00 | 91 | 1034.4 |
| 20260508073517 | 33 | 359 | 0.0 | 0.0 | 0.00 | 0.00 | 0.00 | 91 | 1034.4 |
| 20260508073015 | 33 | 359 | 0.0 | 0.0 | 0.00 | 0.00 | 0.00 | 91 | 1034.3 |
| 20260508072510 | 33 | 359 | 0.0 | 0.0 | 0.00 | 0.00 | 0.00 | 91 | 1034.4 |
| 20260508072008 | 33 | 359 | 0.0 | 0.0 | 0.00 | 0.00 | 0.00 | 90 | 1034.3 |
| 20260508071505 | 33 | 359 | 0.0 | 0.0 | 0.00 | 0.00 | 0.00 | 90 | 1034.5 |
| 20260508071003 | 33 | 359 | 0.0 | 0.0 | 0.00 | 0.00 | 0.00 | 89 | 1034.5 |
| 20260508070500 | 33 | 359 | 0.0 | 0.0 | 0.00 | 0.00 | 0.00 | 89 | 1034.6 |
| 20260508065958 | 34 | 359 | 0.0 | 0.0 | 0.00 | 0.00 | 0.00 | 89 | 1034.6 |
| 20260508065456 | 34 | 0 | 0.0 | 0.0 | 0.00 | 0.00 | 0.00 | 89 | 1034.6 |
| 20260508064954 | 34 | 0 | 0.0 | 0.0 | 0.00 | 0.00 | 0.00 | 88 | 1034.6 |
| 20260508064451 | 34 | 0 | 0.0 | 0.0 | 0.00 | 0.00 | 0.00 | 88 | 1034.6 |
| 20260508063949 | 34 | 356 | 0.0 | 0.0 | 0.00 | 0.00 | 0.00 | 88 | 1034.5 |
| 20260508063446 | 34 | 356 | 0.0 | 0.0 | 0.00 | 0.00 | 0.00 | 87 | 1034.7 |
| 20260508062944 | 34 | 356 | 0.0 | 0.0 | 0.00 | 0.00 | 0.00 | 87 | 1034.7 |
| 20260508062441 | 35 | 356 | 0.0 | 0.0 | 0.00 | 0.00 | 0.00 | 86 | 1034.5 |
| 20260508061938 | 35 | 356 | 0.0 | 0.0 | 0.00 | 0.00 | 0.00 | 86 | 1034.7 |
| 20260508061436 | 35 | 356 | 0.0 | 0.0 | 0.00 | 0.00 | 0.00 | 85 | 1034.5 |
| 20260508060932 | 35 | 356 | 0.0 | 0.0 | 0.00 | 0.00 | 0.00 | 85 | 1034.7 |
| 20260508060429 | 35 | 356 | 0.0 | 0.0 | 0.00 | 0.00 | 0.00 | 85 | 1034.8 |
| 20260508055925 | 35 | 356 | 0.0 | 0.0 | 0.00 | 0.00 | 0.00 | 86 | 1034.6 |
| 20260508055422 | 35 | 356 | 0.0 | 0.0 | 0.00 | 0.00 | 0.00 | 85 | 1034.6 |
| 20260508054918 | 36 | 356 | 0.0 | 0.0 | 0.00 | 0.00 | 0.00 | 85 | 1034.5 |
| 20260508054416 | 36 | 356 | 0.0 | 0.0 | 0.00 | 0.00 | 0.00 | 85 | 1034.8 |
| 20260508053913 | 36 | 356 | 0.0 | 0.0 | 0.00 | 0.00 | 0.00 | 83 | 1034.9 |
| 20260508053410 | 35 | 356 | 0.0 | 0.0 | 0.00 | 0.00 | 0.00 | 83 | 1035.0 |
| 20260508052908 | 36 | 356 | 0.0 | 0.0 | 0.00 | 0.00 | 0.00 | 83 | 1035.0 |
| 20260508052405 | 36 | 356 | 0.0 | 0.0 | 0.00 | 0.00 | 0.00 | 84 | 1035.1 |
| 20260508051901 | 36 | 356 | 0.0 | 0.0 | 0.00 | 0.00 | 0.00 | 83 | 1035.1 |
| 20260508051357 | 36 | 356 | 0.0 | 0.0 | 0.00 | 0.00 | 0.00 | 84 | 1035.1 |
| 20260508050853 | 37 | 356 | 0.0 | 0.0 | 0.00 | 0.00 | 0.00 | 83 | 1035.2 |
| 20260508050350 | 37 | 356 | 0.0 | 0.0 | 0.00 | 0.00 | 0.00 | 83 | 1035.2 |
| 20260508045845 | 37 | 356 | 0.0 | 0.0 | 0.00 | 0.00 | 0.00 | 82 | 1035.2 |
| 20260508045344 | 37 | 356 | 0.0 | 0.0 | 0.00 | 0.00 | 0.00 | 82 | 1035.1 |
| 20260508044841 | 37 | 356 | 0.0 | 0.0 | 0.00 | 0.00 | 0.00 | 80 | 1035.1 |
| 20260508044337 | 37 | 356 | 0.0 | 0.0 | 0.00 | 0.00 | 0.00 | 80 | 1035.2 |
| 20260508043833 | 37 | 356 | 0.0 | 0.0 | 0.00 | 0.00 | 0.00 | 80 | 1035.1 |
| 20260508043331 | 37 | 356 | 0.0 | 0.0 | 0.00 | 0.00 | 0.00 | 80 | 1035.1 |
| 20260508042827 | 37 | 356 | 0.0 | 0.0 | 0.00 | 0.00 | 0.00 | 80 | 1035.1 |
| 20260508042325 | 38 | 356 | 0.0 | 0.0 | 0.00 | 0.00 | 0.00 | 79 | 1035.3 |
| 20260508041821 | 38 | 356 | 0.0 | 0.0 | 0.00 | 0.00 | 0.00 | 79 | 1035.1 |
| 20260508041318 | 38 | 356 | 0.0 | 0.0 | 0.00 | 0.00 | 0.00 | 79 | 1035.4 |
| 20260508040814 | 38 | 356 | 0.0 | 0.0 | 0.00 | 0.00 | 0.00 | 77 | 1035.5 |
| 20260508040312 | 38 | 356 | 0.0 | 0.0 | 0.00 | 0.00 | 0.00 | 76 | 1035.4 |
| 20260508035809 | 38 | 356 | 0.0 | 0.0 | 0.00 | 0.00 | 0.00 | 75 | 1035.3 |
| 20260508035307 | 38 | 356 | 0.0 | 0.0 | 0.00 | 0.00 | 0.00 | 75 | 1035.4 |
| 20260508034803 | 39 | 356 | 0.0 | 0.0 | 0.00 | 0.00 | 0.00 | 75 | 1035.4 |
| 20260508034300 | 39 | 356 | 0.0 | 0.0 | 0.00 | 0.00 | 0.00 | 75 | 1035.3 |
| 20260508033757 | 39 | 356 | 0.0 | 0.0 | 0.00 | 0.00 | 0.00 | 75 | 1035.3 |
| 20260508033255 | 39 | 356 | 0.0 | 0.0 | 0.00 | 0.00 | 0.00 | 75 | 1035.2 |
| 20260508032753 | 40 | 356 | 0.0 | 0.0 | 0.00 | 0.00 | 0.00 | 73 | 1035.3 |
| 20260508032250 | 40 | 356 | 0.0 | 0.0 | 0.00 | 0.00 | 0.00 | 73 | 1035.2 |
| 20260508031746 | 40 | 356 | 0.0 | 0.0 | 0.00 | 0.00 | 0.00 | 73 | 1035.1 |
| 20260508031243 | 40 | 356 | 0.0 | 0.0 | 0.00 | 0.00 | 0.00 | 71 | 1035.2 |
| 20260508030739 | 41 | 356 | 0.0 | 0.0 | 0.00 | 0.00 | 0.00 | 71 | 1035.2 |
| 20260508030237 | 41 | 356 | 0.0 | 0.0 | 0.00 | 0.00 | 0.00 | 70 | 1035.2 |
| 20260508025733 | 41 | 356 | 0.0 | 0.0 | 0.00 | 0.00 | 0.00 | 69 | 1035.3 |
| 20260508025230 | 42 | 356 | 0.0 | 0.0 | 0.00 | 0.00 | 0.00 | 68 | 1035.3 |
| 20260508024726 | 42 | 356 | 0.0 | 0.0 | 0.00 | 0.00 | 0.00 | 67 | 1035.2 |
| 20260508024223 | 42 | 356 | 0.0 | 0.0 | 0.00 | 0.00 | 0.00 | 67 | 1035.1 |
| 20260508023720 | 42 | 356 | 0.0 | 0.0 | 0.00 | 0.00 | 0.00 | 65 | 1035.2 |
| 20260508023218 | 42 | 356 | 0.0 | 0.0 | 0.00 | 0.00 | 0.00 | 62 | 1035.1 |
| 20260508022713 | 43 | 356 | 0.0 | 0.0 | 0.00 | 0.00 | 0.00 | 63 | 1035.1 |
| 20260508022210 | 43 | 356 | 0.0 | 0.0 | 0.00 | 0.00 | 0.00 | 63 | 1035.3 |
| 20260508021707 | 44 | 356 | 0.0 | 0.0 | 0.00 | 0.00 | 0.00 | 63 | 1035.2 |
| 20260508021202 | 44 | 356 | 0.0 | 0.0 | 0.00 | 0.00 | 0.00 | 58 | 1035.0 |
| 20260508020700 | 44 | 356 | 0.0 | 0.0 | 0.00 | 0.00 | 0.00 | 57 | 1034.9 |
| 20260508020157 | 44 | 356 | 0.0 | 0.0 | 0.00 | 0.00 | 0.00 | 59 | 1035.0 |
| 20260508015654 | 44 | 356 | 0.0 | 0.0 | 0.00 | 0.00 | 0.00 | 59 | 1034.9 |
| 20260508015151 | 44 | 356 | 0.0 | 0.0 | 0.00 | 0.00 | 0.00 | 59 | 1034.9 |
| 20260508014648 | 45 | 356 | 0.0 | 0.0 | 0.00 | 0.00 | 0.00 | 58 | 1034.8 |
| 20260508014143 | 45 | 356 | 0.0 | 0.0 | 0.00 | 0.00 | 0.00 | 56 | 1034.7 |
| 20260508013640 | 45 | 356 | 0.0 | 0.0 | 0.00 | 0.00 | 0.00 | 56 | 1034.7 |
| 20260508013137 | 46 | 356 | 0.0 | 0.0 | 0.00 | 0.00 | 0.00 | 55 | 1034.9 |
| 20260508012635 | 46 | 356 | 0.0 | 0.0 | 0.00 | 0.00 | 0.00 | 52 | 1034.9 |
| 20260508012132 | 47 | 356 | 0.0 | 0.0 | 0.00 | 0.00 | 0.00 | 51 | 1035.0 |
| 20260508011630 | 47 | 356 | 0.0 | 0.0 | 0.00 | 0.00 | 0.00 | 51 | 1034.8 |
| 20260508011127 | 47 | 356 | 0.0 | 0.0 | 0.00 | 0.00 | 0.00 | 53 | 1034.8 |
| 20260508010623 | 48 | 356 | 0.0 | 0.0 | 0.00 | 0.00 | 0.00 | 49 | 1034.7 |
| 20260508010122 | 48 | 356 | 0.0 | 0.0 | 0.00 | 0.00 | 0.00 | 50 | 1034.7 |
| 20260508005619 | 48 | 357 | 0.0 | 0.0 | 0.00 | 0.00 | 0.00 | 51 | 1034.5 |
| 20260508005114 | 48 | 358 | 0.0 | 0.0 | 0.00 | 0.00 | 0.00 | 50 | 1034.5 |
| 20260508004610 | 49 | 354 | 0.0 | 0.0 | 0.00 | 0.00 | 0.00 | 49 | 1034.4 |
| 20260508004108 | 49 | 341 | 0.0 | 0.0 | 0.00 | 0.00 | 0.00 | 47 | 1034.4 |
| 20260508003604 | 49 | 349 | 0.0 | 0.0 | 0.00 | 0.00 | 0.00 | 47 | 1034.3 |
| 20260508003102 | 50 | 348 | 0.0 | 0.0 | 0.00 | 0.00 | 0.00 | 46 | 1034.3 |
| 20260508002558 | 50 | 341 | 0.0 | 0.0 | 0.00 | 0.00 | 0.00 | 47 | 1034.2 |
| 20260508002055 | 50 | 21 | 1.0 | 2.0 | 0.00 | 0.00 | 0.00 | 45 | 1033.9 |
| 20260508001550 | 50 | 93 | 1.0 | 2.0 | 0.00 | 0.00 | 0.00 | 44 | 1033.9 |
| 20260508001047 | 50 | 22 | 1.0 | 1.0 | 0.00 | 0.00 | 0.00 | 46 | 1034.0 |
| 20260508000543 | 51 | 7 | 1.0 | 1.0 | 0.00 | 0.00 | 0.00 | 46 | 1033.7 |
| 20260508000040 | 51 | 356 | 0.0 | 0.0 | 0.00 | 0.00 | 0.00 | 42 | 1033.8 |
| 20260507235537 | 51 | 335 | 1.0 | 2.0 | 0.00 | 0.00 | 0.00 | 43 | 1033.9 |
| 20260507235035 | 52 | 343 | 1.0 | 1.0 | 0.00 | 0.00 | 0.00 | 42 | 1033.6 |
| 20260507234531 | 52 | 332 | 0.0 | 0.0 | 0.00 | 0.00 | 0.00 | 41 | 1033.6 |
| 20260507234027 | 52 | 301 | 0.0 | 1.0 | 0.00 | 0.00 | 0.00 | 40 | 1033.6 |
| 20260507233524 | 53 | 313 | 1.0 | 1.0 | 0.00 | 0.00 | 0.00 | 41 | 1033.3 |
| 20260507233023 | 53 | 321 | 1.0 | 2.0 | 0.00 | 0.00 | 0.00 | 40 | 1033.3 |
| 20260507232519 | 53 | 315 | 1.0 | 1.0 | 0.00 | 0.00 | 0.00 | 40 | 1033.5 |
| 20260507232016 | 54 | 332 | 0.0 | 0.0 | 0.00 | 0.00 | 0.00 | 40 | 1033.4 |
| 20260507231512 | 54 | 321 | 0.0 | 0.0 | 0.00 | 0.00 | 0.00 | 39 | 1033.2 |
| 20260507231010 | 54 | 330 | 1.0 | 1.0 | 0.00 | 0.00 | 0.00 | 39 | 1033.2 |
| 20260507230506 | 54 | 327 | 0.0 | 0.0 | 0.00 | 0.00 | 0.00 | 40 | 1033.4 |
| 20260507230002 | 54 | 307 | 2.0 | 2.0 | 0.00 | 0.00 | 0.00 | 39 | 1033.1 |
| 20260507225458 | 54 | 319 | 2.0 | 3.0 | 0.00 | 0.00 | 0.00 | 36 | 1033.1 |
| 20260507224954 | 54 | 332 | 0.0 | 0.0 | 0.00 | 0.00 | 0.00 | 38 | 1033.2 |
| 20260507224450 | 55 | 311 | 1.0 | 1.0 | 0.00 | 0.00 | 0.00 | 35 | 1033.1 |
| 20260507223947 | 55 | 326 | 0.0 | 0.0 | 0.00 | 0.00 | 0.00 | 38 | 1033.0 |
| 20260507223443 | 55 | 319 | 0.0 | 1.0 | 0.00 | 0.00 | 0.00 | 37 | 1033.1 |
| 20260507222941 | 56 | 316 | 0.0 | 1.0 | 0.00 | 0.00 | 0.00 | 36 | 1033.0 |
| 20260507222437 | 57 | 312 | 2.0 | 2.0 | 0.00 | 0.00 | 0.00 | 34 | 1032.8 |
| 20260507221934 | 58 | 314 | 3.0 | 3.0 | 0.00 | 0.00 | 0.00 | 32 | 1032.9 |
| 20260507221431 | 58 | 310 | 2.0 | 3.0 | 0.00 | 0.00 | 0.00 | 32 | 1032.9 |
| 20260507220926 | 59 | 303 | 2.0 | 2.0 | 0.00 | 0.00 | 0.00 | 32 | 1032.8 |
| 20260507220424 | 59 | 307 | 3.0 | 3.0 | 0.00 | 0.00 | 0.00 | 31 | 1032.8 |
| 20260507215921 | 60 | 328 | 1.0 | 1.0 | 0.00 | 0.00 | 0.00 | 33 | 1032.9 |
| 20260507215418 | 59 | 322 | 1.0 | 1.0 | 0.00 | 0.00 | 0.00 | 32 | 1032.8 |
| 20260507214915 | 60 | 287 | 2.0 | 3.0 | 0.00 | 0.00 | 0.00 | 31 | 1032.8 |
| 20260507214413 | 61 | 309 | 2.0 | 3.0 | 0.00 | 0.00 | 0.00 | 31 | 1032.6 |
| 20260507213908 | 61 | 326 | 1.0 | 2.0 | 0.00 | 0.00 | 0.00 | 32 | 1032.7 |
| 20260507213405 | 61 | 291 | 1.0 | 2.0 | 0.00 | 0.00 | 0.00 | 32 | 1032.9 |
| 20260507212902 | 62 | 257 | 3.0 | 3.0 | 0.00 | 0.00 | 0.00 | 31 | 1032.8 |
| 20260507212357 | 60 | 304 | 1.0 | 1.0 | 0.00 | 0.00 | 0.00 | 35 | 1032.7 |
| 20260507211854 | 61 | 304 | 2.0 | 2.0 | 0.00 | 0.00 | 0.00 | 31 | 1032.8 |
| 20260507211351 | 61 | 298 | 3.0 | 5.0 | 0.00 | 0.00 | 0.00 | 29 | 1032.8 |
| 20260507210848 | 61 | 314 | 1.0 | 2.0 | 0.00 | 0.00 | 0.00 | 32 | 1032.8 |
| 20260507210345 | 61 | 300 | 1.0 | 2.0 | 0.00 | 0.00 | 0.00 | 33 | 1032.8 |
| 20260507205841 | 62 | 303 | 2.0 | 2.0 | 0.00 | 0.00 | 0.00 | 34 | 1032.7 |
| 20260507205338 | 63 | 262 | 4.0 | 6.0 | 0.00 | 0.00 | 0.00 | 30 | 1032.5 |
| 20260507204834 | 61 | 314 | 0.0 | 1.0 | 0.00 | 0.00 | 0.00 | 31 | 1032.6 |
| 20260507204331 | 61 | 249 | 3.0 | 3.0 | 0.00 | 0.00 | 0.00 | 32 | 1032.7 |
| 20260507203829 | 60 | 299 | 1.0 | 2.0 | 0.00 | 0.00 | 0.00 | 34 | 1032.6 |
| 20260507203327 | 60 | 271 | 1.0 | 2.0 | 0.00 | 0.00 | 0.00 | 33 | 1032.7 |
| 20260507202823 | 60 | 335 | 0.0 | 0.0 | 0.00 | 0.00 | 0.00 | 32 | 1032.6 |
| 20260507202319 | 59 | 335 | 1.0 | 1.0 | 0.00 | 0.00 | 0.00 | 34 | 1032.7 |
| 20260507201815 | 60 | 283 | 2.0 | 2.0 | 0.00 | 0.00 | 0.00 | 32 | 1032.5 |
| 20260507201311 | 60 | 329 | 0.0 | 0.0 | 0.00 | 0.00 | 0.00 | 35 | 1032.6 |
| 20260507200808 | 60 | 299 | 2.0 | 2.0 | 0.00 | 0.00 | 0.00 | 36 | 1032.6 |
| 20260507200303 | 61 | 325 | 1.0 | 1.0 | 0.00 | 0.00 | 0.00 | 37 | 1032.6 |
| 20260507195759 | 61 | 328 | 1.0 | 1.0 | 0.00 | 0.00 | 0.00 | 32 | 1032.8 |
| 20260507195257 | 61 | 308 | 4.0 | 7.0 | 0.00 | 0.00 | 0.00 | 31 | 1032.7 |
| 20260507194754 | 60 | 303 | 1.0 | 1.0 | 0.00 | 0.00 | 0.00 | 33 | 1032.8 |
| 20260507194250 | 60 | 298 | 1.0 | 2.0 | 0.00 | 0.00 | 0.00 | 35 | 1032.7 |
| 20260507193747 | 59 | 325 | 1.0 | 1.0 | 0.00 | 0.00 | 0.00 | 36 | 1032.9 |
| 20260507193244 | 59 | 283 | 3.0 | 3.0 | 0.00 | 0.00 | 0.00 | 35 | 1032.7 |
| 20260507192740 | 61 | 289 | 3.0 | 3.0 | 0.00 | 0.00 | 0.00 | 35 | 1032.7 |
| 20260507192236 | 61 | 331 | 0.0 | 0.0 | 0.00 | 0.00 | 0.00 | 37 | 1032.8 |
| 20260507191733 | 61 | 303 | 2.0 | 2.0 | 0.00 | 0.00 | 0.00 | 33 | 1033.0 |
| 20260507191230 | 61 | 175 | 2.0 | 2.0 | 0.00 | 0.00 | 0.00 | 32 | 1032.9 |
| 20260507190726 | 60 | 248 | 2.0 | 2.0 | 0.00 | 0.00 | 0.00 | 33 | 1033.0 |
| 20260507190225 | 60 | 341 | 0.0 | 0.0 | 0.00 | 0.00 | 0.00 | 34 | 1033.0 |
| 20260507185723 | 59 | 311 | 2.0 | 2.0 | 0.00 | 0.00 | 0.00 | 39 | 1033.1 |
| 20260507185220 | 58 | 232 | 3.0 | 3.0 | 0.00 | 0.00 | 0.00 | 37 | 1033.0 |
| 20260507184717 | 57 | 321 | 1.0 | 1.0 | 0.00 | 0.00 | 0.00 | 37 | 1033.1 |
| 20260507184215 | 57 | 299 | 1.0 | 2.0 | 0.00 | 0.00 | 0.00 | 37 | 1033.1 |
| 20260507183711 | 59 | 311 | 3.0 | 3.0 | 0.00 | 0.00 | 0.00 | 36 | 1033.0 |
| 20260507183208 | 59 | 291 | 2.0 | 2.0 | 0.00 | 0.00 | 0.00 | 37 | 1033.1 |
| 20260507182706 | 59 | 287 | 2.0 | 3.0 | 0.00 | 0.00 | 0.00 | 35 | 1033.3 |
| 20260507182201 | 59 | 295 | 2.0 | 2.0 | 0.00 | 0.00 | 0.00 | 36 | 1033.2 |
| 20260507181658 | 60 | 308 | 2.0 | 2.0 | 0.00 | 0.00 | 0.00 | 36 | 1033.2 |
| 20260507181154 | 57 | 314 | 3.0 | 3.0 | 0.00 | 0.00 | 0.00 | 38 | 1033.1 |
| 20260507180650 | 58 | 319 | 1.0 | 1.0 | 0.00 | 0.00 | 0.00 | 37 | 1033.3 |
| 20260507180148 | 59 | 325 | 2.0 | 3.0 | 0.00 | 0.00 | 0.00 | 36 | 1033.3 |
| 20260507175643 | 59 | 270 | 2.0 | 3.0 | 0.00 | 0.00 | 0.00 | 38 | 1033.3 |
| 20260507175141 | 59 | 295 | 2.0 | 2.0 | 0.00 | 0.00 | 0.00 | 37 | 1033.2 |
| 20260507174638 | 58 | 310 | 1.0 | 1.0 | 0.00 | 0.00 | 0.00 | 39 | 1033.3 |
| 20260507174136 | 58 | 344 | 1.0 | 2.0 | 0.00 | 0.00 | 0.00 | 38 | 1033.4 |
| 20260507173633 | 59 | 315 | 2.0 | 2.0 | 0.00 | 0.00 | 0.00 | 41 | 1033.4 |
| 20260507173130 | 58 | 325 | 1.0 | 1.0 | 0.00 | 0.00 | 0.00 | 36 | 1033.3 |
| 20260507172626 | 58 | 307 | 1.0 | 2.0 | 0.00 | 0.00 | 0.00 | 44 | 1033.4 |
| 20260507172124 | 58 | 307 | 1.0 | 1.0 | 0.00 | 0.00 | 0.00 | 41 | 1033.4 |
| 20260507171618 | 59 | 334 | 3.0 | 9.0 | 0.00 | 0.00 | 0.00 | 37 | 1033.5 |
| 20260507171116 | 58 | 313 | 1.0 | 1.0 | 0.00 | 0.00 | 0.00 | 42 | 1033.6 |
| 20260507170613 | 57 | 287 | 2.0 | 2.0 | 0.00 | 0.00 | 0.00 | 42 | 1033.6 |
| 20260507170110 | 58 | 284 | 4.0 | 5.0 | 0.00 | 0.00 | 0.00 | 38 | 1033.8 |
| 20260507165605 | 57 | 331 | 1.0 | 1.0 | 0.00 | 0.00 | 0.00 | 44 | 1033.9 |
| 20260507165102 | 57 | 320 | 2.0 | 2.0 | 0.00 | 0.00 | 0.00 | 41 | 1033.9 |
| 20260507164558 | 56 | 324 | 0.0 | 1.0 | 0.00 | 0.00 | 0.00 | 45 | 1033.7 |
| 20260507164055 | 57 | 312 | 1.0 | 1.0 | 0.00 | 0.00 | 0.00 | 41 | 1034.0 |
| 20260507163552 | 57 | 319 | 1.0 | 1.0 | 0.00 | 0.00 | 0.00 | 47 | 1034.0 |
| 20260507163045 | 55 | 306 | 1.0 | 1.0 | 0.00 | 0.00 | 0.00 | 46 | 1034.1 |
| 20260507162544 | 55 | 23 | 1.0 | 2.0 | 0.00 | 0.00 | 0.00 | 41 | 1034.1 |
| 20260507162042 | 57 | 313 | 1.0 | 2.0 | 0.00 | 0.00 | 0.00 | 42 | 1034.2 |
| 20260507161539 | 55 | 334 | 0.0 | 1.0 | 0.00 | 0.00 | 0.00 | 44 | 1034.3 |
| 20260507161035 | 54 | 294 | 2.0 | 2.0 | 0.00 | 0.00 | 0.00 | 47 | 1034.2 |
| 20260507160531 | 55 | 313 | 1.0 | 2.0 | 0.00 | 0.00 | 0.00 | 47 | 1034.3 |
| 20260507160027 | 54 | 281 | 2.0 | 2.0 | 0.00 | 0.00 | 0.00 | 48 | 1034.5 |
| 20260507155522 | 54 | 349 | 0.0 | 0.0 | 0.00 | 0.00 | 0.00 | 49 | 1034.6 |
| 20260507155020 | 55 | 271 | 1.0 | 2.0 | 0.00 | 0.00 | 0.00 | 49 | 1034.8 |
| 20260507154517 | 53 | 315 | 1.0 | 2.0 | 0.00 | 0.00 | 0.00 | 48 | 1034.7 |
| 20260507154014 | 54 | 264 | 2.0 | 3.0 | 0.00 | 0.00 | 0.00 | 48 | 1034.7 |
| 20260507153511 | 54 | 281 | 3.0 | 5.0 | 0.00 | 0.00 | 0.00 | 53 | 1034.5 |
| 20260507153007 | 53 | 334 | 0.0 | 0.0 | 0.00 | 0.00 | 0.00 | 51 | 1034.7 |
| 20260507152502 | 53 | 324 | 0.0 | 0.0 | 0.00 | 0.00 | 0.00 | 58 | 1034.6 |
| 20260507151959 | 52 | 317 | 0.0 | 1.0 | 0.00 | 0.00 | 0.00 | 55 | 1034.8 |
| 20260507151455 | 52 | 307 | 3.0 | 5.0 | 0.00 | 0.00 | 0.00 | 51 | 1034.8 |
| 20260507150953 | 53 | 319 | 0.0 | 0.0 | 0.00 | 0.00 | 0.00 | 58 | 1034.8 |
| 20260507150449 | 53 | 303 | 0.0 | 1.0 | 0.00 | 0.00 | 0.00 | 51 | 1034.8 |
| 20260507145945 | 52 | 309 | 2.0 | 2.0 | 0.00 | 0.00 | 0.00 | 55 | 1034.6 |
| 20260507145441 | 52 | 321 | 1.0 | 1.0 | 0.00 | 0.00 | 0.00 | 57 | 1034.7 |
| 20260507144938 | 52 | 309 | 1.0 | 2.0 | 0.00 | 0.00 | 0.00 | 56 | 1034.8 |
| 20260507144435 | 52 | 306 | 2.0 | 2.0 | 0.00 | 0.00 | 0.00 | 60 | 1034.9 |
| 20260507143932 | 52 | 305 | 0.0 | 1.0 | 0.00 | 0.00 | 0.00 | 65 | 1034.8 |
| 20260507143430 | 51 | 321 | 1.0 | 2.0 | 0.00 | 0.00 | 0.00 | 64 | 1034.8 |
| 20260507142926 | 51 | 296 | 1.0 | 2.0 | 0.00 | 0.00 | 0.00 | 66 | 1034.6 |
| 20260507142422 | 51 | 310 | 0.0 | 1.0 | 0.00 | 0.00 | 0.00 | 68 | 1034.6 |
| 20260507141920 | 50 | 296 | 1.0 | 2.0 | 0.00 | 0.00 | 0.00 | 73 | 1034.6 |
| 20260507141415 | 50 | 299 | 1.0 | 2.0 | 0.00 | 0.00 | 0.00 | 69 | 1034.6 |
| 20260507140912 | 50 | 308 | 1.0 | 2.0 | 0.00 | 0.00 | 0.00 | 70 | 1034.5 |
| 20260507140409 | 50 | 286 | 2.0 | 2.0 | 0.00 | 0.00 | 0.00 | 68 | 1034.4 |
| 20260507135907 | 50 | 303 | 2.0 | 2.0 | 0.00 | 0.00 | 0.00 | 73 | 1034.5 |
| 20260507135403 | 49 | 294 | 1.0 | 2.0 | 0.00 | 0.00 | 0.00 | 72 | 1034.4 |
| 20260507134901 | 49 | 290 | 2.0 | 2.0 | 0.00 | 0.00 | 0.00 | 72 | 1034.5 |
| 20260507134357 | 49 | 297 | 1.0 | 2.0 | 0.00 | 0.00 | 0.00 | 74 | 1034.3 |
| 20260507133853 | 49 | 312 | 0.0 | 0.0 | 0.00 | 0.00 | 0.00 | 78 | 1034.4 |
| 20260507133349 | 48 | 313 | 0.0 | 1.0 | 0.00 | 0.00 | 0.00 | 76 | 1034.3 |
| 20260507132848 | 48 | 313 | 0.0 | 0.0 | 0.00 | 0.00 | 0.00 | 79 | 1034.5 |
| 20260507132343 | 47 | 310 | 0.0 | 1.0 | 0.00 | 0.00 | 0.00 | 85 | 1034.7 |
| 20260507131841 | 46 | 325 | 0.0 | 0.0 | 0.00 | 0.00 | 0.00 | 86 | 1034.7 |
| 20260507131337 | 45 | 308 | 2.0 | 2.0 | 0.00 | 0.00 | 0.00 | 82 | 1034.5 |
| 20260507130834 | 44 | 332 | 0.0 | 0.0 | 0.00 | 0.00 | 0.00 | 92 | 1034.7 |
| 20260507130331 | 44 | 316 | 1.0 | 2.0 | 0.00 | 0.00 | 0.00 | 96 | 1034.7 |
| 20260507125830 | 45 | 323 | 0.0 | 0.0 | 0.00 | 0.00 | 0.00 | 98 | 1034.8 |
| 20260507125327 | 44 | 314 | 1.0 | 1.0 | 0.00 | 0.00 | 0.00 | 98 | 1034.7 |
| 20260507124824 | 44 | 333 | 0.0 | 0.0 | 0.00 | 0.00 | 0.00 | 99 | 1034.7 |
| 20260507124321 | 44 | 328 | 0.0 | 0.0 | 0.00 | 0.00 | 0.00 | 99 | 1034.8 |
| 20260507123819 | 45 | 328 | 0.0 | 0.0 | 0.00 | 0.00 | 0.00 | 99 | 1034.4 |
| 20260507123316 | 45 | 327 | 0.0 | 0.0 | 0.00 | 0.00 | 0.00 | 99 | 1034.6 |
| 20260507122812 | 44 | 326 | 0.0 | 0.0 | 0.00 | 0.00 | 0.00 | 99 | 1034.4 |
| 20260507122308 | 44 | 340 | 0.0 | 0.0 | 0.00 | 0.00 | 0.00 | 99 | 1034.6 |
| 20260507121804 | 44 | 345 | 0.0 | 0.0 | 0.00 | 0.00 | 0.00 | 99 | 1034.8 |
| 20260507121300 | 44 | 334 | 0.0 | 0.0 | 0.00 | 0.00 | 0.00 | 99 | 1034.6 |
| 20260507120756 | 44 | 332 | 0.0 | 0.0 | 0.00 | 0.00 | 0.00 | 99 | 1034.4 |
| 20260507120253 | 44 | 326 | 0.0 | 0.0 | 0.00 | 0.00 | 0.00 | 99 | 1034.3 |
| 20260507115749 | 43 | 349 | 0.0 | 1.0 | 0.00 | 0.00 | 0.00 | 99 | 1034.4 |
| 20260507115245 | 43 | 28 | 0.0 | 0.0 | 0.00 | 0.00 | 0.00 | 99 | 1034.2 |
| 20260507114741 | 43 | 321 | 0.0 | 0.0 | 0.00 | 0.00 | 0.00 | 99 | 1034.2 |
| 20260507114238 | 43 | 339 | 0.0 | 0.0 | 0.00 | 0.00 | 0.00 | 99 | 1034.1 |
| 20260507113736 | 42 | 336 | 0.0 | 0.0 | 0.00 | 0.00 | 0.00 | 99 | 1034.2 |